Time,TemperatureF,DewpointF,PressureIn,WindDirection,WindDirectionDegrees,WindSpeedMPH,WindSpeedGustMPH,Humidity,HourlyPrecipIn,Conditions,Clouds,dailyrainin,SoftwareType,DateUTC
2013-07-08 00:01:00,73.2,70.4,29.94,East,91,0.0,0.0,91,0.00,,,0.00,WUHU216DAVISVP2,2013-07-08 04:01:00,
2013-07-08 00:06:00,73.2,70.7,29.94,East,91,0.0,0.0,92,0.00,,,0.00,WUHU216DAVISVP2,2013-07-08 04:06:00,
2013-07-08 00:11:00,73.2,70.7,29.94,East,91,0.0,0.0,92,0.00,,,0.00,WUHU216DAVISVP2,2013-07-08 04:11:00,
2013-07-08 00:16:00,73.3,70.8,29.93,East,91,0.0,0.0,92,0.00,,,0.00,WUHU216DAVISVP2,2013-07-08 04:16:00,
2013-07-08 00:21:00,73.2,70.7,29.93,East,91,0.0,0.0,92,0.00,,,0.00,WUHU216DAVISVP2,2013-07-08 04:21:00,
2013-07-08 00:26:00,73.1,70.6,29.93,East,91,0.0,0.0,92,0.00,,,0.00,WUHU216DAVISVP2,2013-07-08 04:26:00,
2013-07-08 00:31:00,72.9,70.4,29.93,East,91,0.0,0.0,92,0.00,,,0.00,WUHU216DAVISVP2,2013-07-08 04:31:00,
2013-07-08 00:36:00,72.8,70.7,29.93,East,91,0.0,0.0,93,0.00,,,0.00,WUHU216DAVISVP2,2013-07-08 04:36:00,
2013-07-08 00:41:00,72.7,70.5,29.93,East,91,0.0,0.0,93,0.00,,,0.00,WUHU216DAVISVP2,2013-07-08 04:41:00,
2013-07-08 00:46:00,72.6,70.4,29.93,East,91,0.0,0.0,93,0.00,,,0.00,WUHU216DAVISVP2,2013-07-08 04:46:00,
2013-07-08 00:51:00,72.5,70.3,29.93,East,91,0.0,0.0,93,0.00,,,0.00,WUHU216DAVISVP2,2013-07-08 04:51:00,
2013-07-08 00:56:00,72.4,70.5,29.94,East,91,0.0,0.0,94,0.00,,,0.00,WUHU216DAVISVP2,2013-07-08 04:56:00,
2013-07-08 01:01:00,72.4,70.6,29.94,East,91,0.0,0.0,94,0.00,,,0.00,WUHU216DAVISVP2,2013-07-08 05:01:00,
2013-07-08 01:06:00,72.5,70.6,29.94,East,91,0.0,0.0,94,0.00,,,0.00,WUHU216DAVISVP2,2013-07-08 05:06:00,
2013-07-08 01:11:00,72.4,70.6,29.95,East,91,0.0,0.0,94,0.00,,,0.00,WUHU216DAVISVP2,2013-07-08 05:11:00,
2013-07-08 01:16:00,72.3,70.8,29.95,East,91,0.0,0.0,95,0.00,,,0.00,WUHU216DAVISVP2,2013-07-08 05:16:00,
2013-07-08 01:21:00,72.2,70.7,29.95,East,91,0.0,0.0,95,0.00,,,0.00,WUHU216DAVISVP2,2013-07-08 05:21:00,
2013-07-08 01:26:00,72.2,70.7,29.95,East,91,0.0,0.0,95,0.00,,,0.00,WUHU216DAVISVP2,2013-07-08 05:26:00,
2013-07-08 01:31:00,72.3,70.8,29.95,East,91,0.0,0.0,95,0.00,,,0.00,WUHU216DAVISVP2,2013-07-08 05:31:00,
2013-07-08 01:36:00,72.3,70.8,29.95,East,91,0.0,0.0,95,0.00,,,0.00,WUHU216DAVISVP2,2013-07-08 05:36:00,
2013-07-08 01:41:00,72.4,70.9,29.95,East,91,0.0,0.0,95,0.00,,,0.00,WUHU216DAVISVP2,2013-07-08 05:41:00,
2013-07-08 01:46:00,72.5,71.0,29.95,East,91,0.0,0.0,95,0.00,,,0.00,WUHU216DAVISVP2,2013-07-08 05:46:00,
2013-07-08 01:51:00,72.5,71.0,29.94,East,91,0.0,0.0,95,0.00,,,0.00,WUHU216DAVISVP2,2013-07-08 05:51:00,
2013-07-08 01:56:00,72.5,71.0,29.94,East,91,0.0,0.0,95,0.00,,,0.00,WUHU216DAVISVP2,2013-07-08 05:56:00,
2013-07-08 02:01:00,72.4,71.2,29.94,East,91,0.0,0.0,96,0.00,,,0.00,WUHU216DAVISVP2,2013-07-08 06:01:00,
2013-07-08 02:06:00,72.4,71.2,29.94,East,91,0.0,0.0,96,0.00,,,0.00,WUHU216DAVISVP2,2013-07-08 06:06:00,
2013-07-08 02:11:00,72.6,71.4,29.95,East,91,0.0,0.0,96,0.00,,,0.00,WUHU216DAVISVP2,2013-07-08 06:11:00,
2013-07-08 02:16:00,72.6,71.1,29.95,East,91,0.0,0.0,95,0.00,,,0.00,WUHU216DAVISVP2,2013-07-08 06:16:00,
2013-07-08 02:21:00,72.6,71.4,29.95,East,91,0.0,0.0,96,0.00,,,0.00,WUHU216DAVISVP2,2013-07-08 06:21:00,
2013-07-08 02:26:00,72.7,71.5,29.95,East,91,0.0,0.0,96,0.00,,,0.00,WUHU216DAVISVP2,2013-07-08 06:26:00,
2013-07-08 02:31:00,72.7,71.5,29.94,East,91,0.0,0.0,96,0.00,,,0.00,WUHU216DAVISVP2,2013-07-08 06:31:00,
2013-07-08 02:36:00,72.7,71.5,29.94,East,91,0.0,0.0,96,0.00,,,0.00,WUHU216DAVISVP2,2013-07-08 06:36:00,
2013-07-08 02:41:00,72.8,71.6,29.94,East,91,0.0,0.0,96,0.00,,,0.00,WUHU216DAVISVP2,2013-07-08 06:41:00,
2013-07-08 02:46:00,73.0,71.8,29.94,East,91,0.0,0.0,96,0.00,,,0.00,WUHU216DAVISVP2,2013-07-08 06:46:00,
2013-07-08 02:51:00,73.0,71.8,29.94,East,91,0.0,0.0,96,0.00,,,0.00,WUHU216DAVISVP2,2013-07-08 06:51:00,
2013-07-08 02:56:00,73.0,71.8,29.94,East,91,0.0,0.0,96,0.00,,,0.00,WUHU216DAVISVP2,2013-07-08 06:56:00,
2013-07-08 03:01:00,73.1,71.9,29.94,East,91,0.0,0.0,96,0.00,,,0.00,WUHU216DAVISVP2,2013-07-08 07:01:00,
2013-07-08 03:06:00,73.2,72.0,29.94,East,91,0.0,0.0,96,0.00,,,0.00,WUHU216DAVISVP2,2013-07-08 07:06:00,
2013-07-08 03:11:00,73.2,72.0,29.94,East,91,0.0,0.0,96,0.00,,,0.00,WUHU216DAVISVP2,2013-07-08 07:11:00,
2013-07-08 03:16:00,73.2,72.0,29.94,East,91,0.0,0.0,96,0.00,,,0.00,WUHU216DAVISVP2,2013-07-08 07:16:00,
2013-07-08 03:21:00,73.1,71.9,29.93,East,91,0.0,0.0,96,0.00,,,0.00,WUHU216DAVISVP2,2013-07-08 07:21:00,
2013-07-08 03:26:00,73.0,71.8,29.93,East,91,0.0,0.0,96,0.00,,,0.00,WUHU216DAVISVP2,2013-07-08 07:26:00,
2013-07-08 03:31:00,72.8,71.6,29.93,East,91,0.0,0.0,96,0.00,,,0.00,WUHU216DAVISVP2,2013-07-08 07:31:00,
2013-07-08 03:36:00,72.7,71.5,29.93,East,91,0.0,0.0,96,0.00,,,0.00,WUHU216DAVISVP2,2013-07-08 07:36:00,
2013-07-08 03:41:00,72.6,71.7,29.93,East,91,0.0,0.0,97,0.00,,,0.00,WUHU216DAVISVP2,2013-07-08 07:41:00,
2013-07-08 03:46:00,72.5,71.6,29.93,East,91,0.0,0.0,97,0.00,,,0.00,WUHU216DAVISVP2,2013-07-08 07:46:00,
2013-07-08 03:51:00,72.4,71.5,29.92,East,91,0.0,0.0,97,0.00,,,0.00,WUHU216DAVISVP2,2013-07-08 07:51:00,
2013-07-08 03:56:00,72.4,71.5,29.93,East,91,0.0,0.0,97,0.00,,,0.00,WUHU216DAVISVP2,2013-07-08 07:56:00,
2013-07-08 04:01:00,72.4,71.8,29.93,East,91,0.0,0.0,98,0.00,,,0.00,WUHU216DAVISVP2,2013-07-08 08:01:00,
2013-07-08 04:06:00,72.5,71.9,29.93,East,91,0.0,0.0,98,0.00,,,0.00,WUHU216DAVISVP2,2013-07-08 08:06:00,
2013-07-08 04:11:00,72.4,71.5,29.93,East,91,0.0,0.0,97,0.00,,,0.00,WUHU216DAVISVP2,2013-07-08 08:11:00,
2013-07-08 04:16:00,72.4,71.8,29.93,East,91,0.0,0.0,98,0.00,,,0.00,WUHU216DAVISVP2,2013-07-08 08:16:00,
2013-07-08 04:21:00,72.4,71.8,29.93,East,91,0.0,0.0,98,0.00,,,0.00,WUHU216DAVISVP2,2013-07-08 08:21:00,
2013-07-08 04:26:00,72.4,71.8,29.93,East,91,0.0,0.0,98,0.00,,,0.00,WUHU216DAVISVP2,2013-07-08 08:26:00,
2013-07-08 04:31:00,72.4,71.8,29.93,East,91,0.0,0.0,98,0.00,,,0.00,WUHU216DAVISVP2,2013-07-08 08:31:00,
2013-07-08 04:36:00,72.3,71.7,29.93,East,91,0.0,0.0,98,0.00,,,0.00,WUHU216DAVISVP2,2013-07-08 08:36:00,
2013-07-08 04:41:00,72.4,71.8,29.93,East,91,0.0,0.0,98,0.00,,,0.00,WUHU216DAVISVP2,2013-07-08 08:41:00,
2013-07-08 04:46:00,72.6,72.0,29.93,East,91,0.0,0.0,98,0.00,,,0.00,WUHU216DAVISVP2,2013-07-08 08:46:00,
2013-07-08 04:51:00,72.7,72.1,29.93,East,91,0.0,0.0,98,0.00,,,0.00,WUHU216DAVISVP2,2013-07-08 08:51:00,
2013-07-08 04:56:00,72.7,72.1,29.93,East,91,0.0,0.0,98,0.00,,,0.00,WUHU216DAVISVP2,2013-07-08 08:56:00,
2013-07-08 05:01:00,72.7,72.1,29.93,East,91,0.0,0.0,98,0.00,,,0.00,WUHU216DAVISVP2,2013-07-08 09:01:00,
2013-07-08 05:06:00,72.8,72.2,29.93,East,91,0.0,0.0,98,0.00,,,0.00,WUHU216DAVISVP2,2013-07-08 09:06:00,
2013-07-08 05:11:00,73.0,72.4,29.93,East,91,0.0,0.0,98,0.00,,,0.00,WUHU216DAVISVP2,2013-07-08 09:11:00,
2013-07-08 05:16:00,73.0,72.4,29.93,East,91,0.0,0.0,98,0.00,,,0.00,WUHU216DAVISVP2,2013-07-08 09:16:00,
2013-07-08 05:21:00,73.0,72.4,29.94,East,91,0.0,0.0,98,0.00,,,0.00,WUHU216DAVISVP2,2013-07-08 09:21:00,
2013-07-08 05:26:00,72.9,72.3,29.94,East,91,0.0,0.0,98,0.00,,,0.00,WUHU216DAVISVP2,2013-07-08 09:26:00,
2013-07-08 05:31:00,72.9,72.3,29.93,East,91,0.0,0.0,98,0.00,,,0.00,WUHU216DAVISVP2,2013-07-08 09:31:00,
2013-07-08 05:36:00,72.9,72.3,29.93,East,91,0.0,0.0,98,0.00,,,0.00,WUHU216DAVISVP2,2013-07-08 09:36:00,
2013-07-08 05:41:00,72.8,72.2,29.94,East,91,0.0,0.0,98,0.00,,,0.00,WUHU216DAVISVP2,2013-07-08 09:41:00,
2013-07-08 05:46:00,72.8,72.2,29.94,East,91,0.0,0.0,98,0.00,,,0.00,WUHU216DAVISVP2,2013-07-08 09:46:00,
2013-07-08 05:51:00,72.7,72.1,29.94,East,91,0.0,0.0,98,0.00,,,0.00,WUHU216DAVISVP2,2013-07-08 09:51:00,
2013-07-08 05:56:00,72.7,72.1,29.94,East,91,0.0,0.0,98,0.00,,,0.00,WUHU216DAVISVP2,2013-07-08 09:56:00,
2013-07-08 06:01:00,72.7,72.1,29.94,East,91,0.0,0.0,98,0.00,,,0.00,WUHU216DAVISVP2,2013-07-08 10:01:00,
2013-07-08 06:06:00,72.8,72.2,29.94,East,91,0.0,0.0,98,0.00,,,0.00,WUHU216DAVISVP2,2013-07-08 10:06:00,
2013-07-08 06:11:00,73.2,72.6,29.95,East,91,0.0,0.0,98,0.00,,,0.00,WUHU216DAVISVP2,2013-07-08 10:11:00,
2013-07-08 06:16:00,73.5,72.9,29.95,East,91,0.0,0.0,98,0.00,,,0.00,WUHU216DAVISVP2,2013-07-08 10:16:00,
2013-07-08 06:21:00,73.7,73.1,29.94,East,91,0.0,0.0,98,0.00,,,0.00,WUHU216DAVISVP2,2013-07-08 10:21:00,
2013-07-08 06:26:00,73.7,72.8,29.95,East,91,0.0,0.0,97,0.00,,,0.00,WUHU216DAVISVP2,2013-07-08 10:26:00,
2013-07-08 06:31:00,73.8,72.9,29.95,East,91,0.0,0.0,97,0.00,,,0.00,WUHU216DAVISVP2,2013-07-08 10:31:00,
2013-07-08 06:36:00,74.1,72.9,29.95,East,91,0.0,0.0,96,0.00,,,0.00,WUHU216DAVISVP2,2013-07-08 10:36:00,
2013-07-08 06:41:00,75.0,73.2,29.95,East,91,0.0,0.0,94,0.00,,,0.00,WUHU216DAVISVP2,2013-07-08 10:41:00,
2013-07-08 06:46:00,76.3,73.8,29.95,SE,141,0.0,2.0,92,0.00,,,0.00,WUHU216DAVISVP2,2013-07-08 10:46:00,
2013-07-08 06:51:00,77.3,73.8,29.95,NE,55,0.0,2.0,89,0.00,,,0.00,WUHU216DAVISVP2,2013-07-08 10:51:00,
2013-07-08 06:56:00,78.3,74.1,29.95,NE,55,0.0,2.0,87,0.00,,,0.00,WUHU216DAVISVP2,2013-07-08 10:56:00,
2013-07-08 07:01:00,79.3,74.1,29.95,NE,55,0.0,2.0,84,0.00,,,0.00,WUHU216DAVISVP2,2013-07-08 11:01:00,
2013-07-08 07:06:00,79.6,73.6,29.95,North,6,0.0,2.0,82,0.00,,,0.00,WUHU216DAVISVP2,2013-07-08 11:06:00,
2013-07-08 07:11:00,79.4,73.9,29.95,WSW,257,1.0,5.0,83,0.00,,,0.00,WUHU216DAVISVP2,2013-07-08 11:11:00,
2013-07-08 07:16:00,79.4,73.9,29.95,ENE,61,0.0,5.0,83,0.00,,,0.00,WUHU216DAVISVP2,2013-07-08 11:16:00,
2013-07-08 07:21:00,79.7,73.1,29.95,NE,52,0.0,5.0,80,0.00,,,0.00,WUHU216DAVISVP2,2013-07-08 11:21:00,
2013-07-08 07:26:00,80.5,73.5,29.95,ENE,70,0.0,5.0,79,0.00,,,0.00,WUHU216DAVISVP2,2013-07-08 11:26:00,
2013-07-08 07:31:00,80.7,73.3,29.95,NE,46,1.0,3.0,78,0.00,,,0.00,WUHU216DAVISVP2,2013-07-08 11:31:00,
2013-07-08 07:36:00,80.5,73.4,29.95,North,353,2.0,2.0,79,0.00,,,0.00,WUHU216DAVISVP2,2013-07-08 11:36:00,
2013-07-08 07:41:00,80.3,73.3,29.95,East,96,0.0,4.0,79,0.00,,,0.00,WUHU216DAVISVP2,2013-07-08 11:41:00,
2013-07-08 07:46:00,80.6,73.6,29.96,SSE,164,0.0,4.0,79,0.00,,,0.00,WUHU216DAVISVP2,2013-07-08 11:46:00,
2013-07-08 07:51:00,81.4,73.7,29.96,SW,225,1.0,4.0,77,0.00,,,0.00,WUHU216DAVISVP2,2013-07-08 11:51:00,
2013-07-08 07:56:00,81.8,74.0,29.96,NNW,327,2.0,4.0,77,0.00,,,0.00,WUHU216DAVISVP2,2013-07-08 11:56:00,
2013-07-08 08:01:00,82.1,75.1,29.96,North,349,2.0,3.0,79,0.00,,,0.00,WUHU216DAVISVP2,2013-07-08 12:01:00,
2013-07-08 08:06:00,82.5,74.3,29.96,NNE,25,0.0,3.0,76,0.00,,,0.00,WUHU216DAVISVP2,2013-07-08 12:06:00,
2013-07-08 08:11:00,81.6,73.3,29.96,SW,231,2.0,6.0,76,0.00,,,0.00,WUHU216DAVISVP2,2013-07-08 12:11:00,
2013-07-08 08:16:00,80.9,73.0,29.96,North,352,2.0,6.0,77,0.00,,,0.00,WUHU216DAVISVP2,2013-07-08 12:16:00,
2013-07-08 08:21:00,80.4,73.3,29.96,West,271,1.0,6.0,79,0.00,,,0.00,WUHU216DAVISVP2,2013-07-08 12:21:00,
2013-07-08 08:26:00,79.9,73.6,29.97,WNW,293,0.0,6.0,81,0.00,,,0.00,WUHU216DAVISVP2,2013-07-08 12:26:00,
2013-07-08 08:31:00,79.2,73.3,29.97,SW,233,1.0,5.0,82,0.00,,,0.00,WUHU216DAVISVP2,2013-07-08 12:31:00,
2013-07-08 08:36:00,78.8,73.3,29.97,NNE,25,1.0,5.0,83,0.00,,,0.00,WUHU216DAVISVP2,2013-07-08 12:36:00,
2013-07-08 08:41:00,78.7,73.9,29.97,NNE,13,1.0,5.0,85,0.00,,,0.00,WUHU216DAVISVP2,2013-07-08 12:41:00,
2013-07-08 08:46:00,78.7,73.2,29.96,NNE,23,2.0,5.0,83,0.00,,,0.00,WUHU216DAVISVP2,2013-07-08 12:46:00,
2013-07-08 08:51:00,78.8,74.0,29.97,West,260,1.0,5.0,85,0.00,,,0.00,WUHU216DAVISVP2,2013-07-08 12:51:00,
2013-07-08 08:56:00,78.6,73.1,29.96,North,353,2.0,7.0,83,0.00,,,0.00,WUHU216DAVISVP2,2013-07-08 12:56:00,
2013-07-08 09:01:00,78.6,73.4,29.96,North,359,1.0,7.0,84,0.00,,,0.00,WUHU216DAVISVP2,2013-07-08 13:01:00,
2013-07-08 09:06:00,79.2,73.7,29.96,SW,233,1.0,7.0,83,0.00,,,0.00,WUHU216DAVISVP2,2013-07-08 13:06:00,
2013-07-08 09:11:00,79.4,73.5,29.97,West,269,2.0,7.0,82,0.00,,,0.00,WUHU216DAVISVP2,2013-07-08 13:11:00,
2013-07-08 09:16:00,79.8,74.2,29.97,NE,42,0.0,4.0,83,0.00,,,0.00,WUHU216DAVISVP2,2013-07-08 13:16:00,
2013-07-08 09:21:00,80.6,75.4,29.97,ENE,63,1.0,4.0,84,0.00,,,0.00,WUHU216DAVISVP2,2013-07-08 13:21:00,
2013-07-08 09:26:00,81.1,74.5,29.97,NW,316,1.0,3.0,80,0.00,,,0.00,WUHU216DAVISVP2,2013-07-08 13:26:00,
2013-07-08 09:31:00,81.6,74.8,29.97,NE,38,0.0,5.0,80,0.00,,,0.00,WUHU216DAVISVP2,2013-07-08 13:31:00,
2013-07-08 09:36:00,82.2,75.4,29.97,South,184,1.0,5.0,80,0.00,,,0.00,WUHU216DAVISVP2,2013-07-08 13:36:00,
2013-07-08 09:41:00,82.0,74.1,29.97,SW,219,1.0,5.0,77,0.00,,,0.00,WUHU216DAVISVP2,2013-07-08 13:41:00,
2013-07-08 09:46:00,81.7,74.5,29.97,WNW,290,1.0,4.0,79,0.00,,,0.00,WUHU216DAVISVP2,2013-07-08 13:46:00,
2013-07-08 09:51:00,81.6,74.5,29.97,North,6,1.0,4.0,79,0.00,,,0.00,WUHU216DAVISVP2,2013-07-08 13:51:00,
2013-07-08 09:56:00,82.0,74.8,29.97,NNW,347,3.0,4.0,79,0.00,,,0.00,WUHU216DAVISVP2,2013-07-08 13:56:00,
2013-07-08 10:01:00,82.8,75.2,29.98,NNE,16,3.0,4.0,78,0.00,,,0.00,WUHU216DAVISVP2,2013-07-08 14:01:00,
2013-07-08 10:06:00,83.0,75.2,29.97,NW,309,2.0,6.0,77,0.00,,,0.00,WUHU216DAVISVP2,2013-07-08 14:06:00,
2013-07-08 10:11:00,83.4,75.2,29.97,NNE,20,2.0,7.0,76,0.00,,,0.00,WUHU216DAVISVP2,2013-07-08 14:11:00,
2013-07-08 10:16:00,83.7,75.9,29.97,ENE,72,0.0,7.0,77,0.00,,,0.00,WUHU216DAVISVP2,2013-07-08 14:16:00,
2013-07-08 10:21:00,84.2,76.0,29.97,NNE,21,2.0,7.0,76,0.00,,,0.00,WUHU216DAVISVP2,2013-07-08 14:21:00,
2013-07-08 10:26:00,84.4,75.4,29.97,WSW,247,1.0,7.0,74,0.00,,,0.00,WUHU216DAVISVP2,2013-07-08 14:26:00,
2013-07-08 10:31:00,84.7,75.3,29.97,West,269,0.0,6.0,73,0.00,,,0.00,WUHU216DAVISVP2,2013-07-08 14:31:00,
2013-07-08 10:36:00,85.1,75.7,29.97,SSW,203,0.0,6.0,73,0.00,,,0.00,WUHU216DAVISVP2,2013-07-08 14:36:00,
2013-07-08 10:41:00,84.4,74.6,29.97,WSW,238,1.0,6.0,72,0.00,,,0.00,WUHU216DAVISVP2,2013-07-08 14:41:00,
2013-07-08 10:46:00,84.5,75.5,29.97,WSW,249,1.0,6.0,74,0.00,,,0.00,WUHU216DAVISVP2,2013-07-08 14:46:00,
2013-07-08 10:51:00,84.8,74.6,29.97,NE,43,1.0,7.0,71,0.00,,,0.00,WUHU216DAVISVP2,2013-07-08 14:51:00,
2013-07-08 10:56:00,85.4,74.8,29.97,North,354,0.0,7.0,70,0.00,,,0.00,WUHU216DAVISVP2,2013-07-08 14:56:00,
2013-07-08 11:01:00,86.1,76.3,29.97,WSW,249,2.0,7.0,72,0.00,,,0.00,WUHU216DAVISVP2,2013-07-08 15:01:00,
2013-07-08 11:06:00,85.6,73.7,29.97,NNW,348,1.0,8.0,67,0.00,,,0.00,WUHU216DAVISVP2,2013-07-08 15:06:00,
2013-07-08 11:11:00,85.3,73.4,29.97,WNW,293,0.0,8.0,67,0.00,,,0.00,WUHU216DAVISVP2,2013-07-08 15:11:00,
2013-07-08 11:16:00,86.0,75.7,29.97,WSW,245,0.0,8.0,71,0.00,,,0.00,WUHU216DAVISVP2,2013-07-08 15:16:00,
2013-07-08 11:21:00,86.1,73.7,29.97,NNW,348,2.0,7.0,66,0.00,,,0.00,WUHU216DAVISVP2,2013-07-08 15:21:00,
2013-07-08 11:26:00,85.7,73.5,29.97,West,266,1.0,7.0,67,0.00,,,0.00,WUHU216DAVISVP2,2013-07-08 15:26:00,
2013-07-08 11:31:00,85.5,72.8,29.97,NNE,21,4.0,7.0,66,0.00,,,0.00,WUHU216DAVISVP2,2013-07-08 15:31:00,
2013-07-08 11:36:00,85.5,73.3,29.97,NE,41,2.0,7.0,67,0.00,,,0.00,WUHU216DAVISVP2,2013-07-08 15:36:00,
2013-07-08 11:41:00,85.6,73.7,29.98,West,274,2.0,6.0,67,0.00,,,0.00,WUHU216DAVISVP2,2013-07-08 15:41:00,
2013-07-08 11:46:00,85.7,73.8,29.97,North,357,1.0,6.0,67,0.00,,,0.00,WUHU216DAVISVP2,2013-07-08 15:46:00,
2013-07-08 11:51:00,85.8,73.4,29.97,WSW,257,0.0,6.0,66,0.00,,,0.00,WUHU216DAVISVP2,2013-07-08 15:51:00,
2013-07-08 11:56:00,85.5,72.7,29.97,NE,56,1.0,6.0,65,0.00,,,0.00,WUHU216DAVISVP2,2013-07-08 15:56:00,
2013-07-08 12:01:00,85.6,74.1,29.97,NE,35,0.0,3.0,68,0.00,,,0.00,WUHU216DAVISVP2,2013-07-08 16:01:00,
2013-07-08 12:06:00,86.9,75.3,29.97,NE,52,0.0,3.0,68,0.00,,,0.00,WUHU216DAVISVP2,2013-07-08 16:06:00,
2013-07-08 12:11:00,87.3,73.2,29.97,ESE,118,0.0,3.0,63,0.00,,,0.00,WUHU216DAVISVP2,2013-07-08 16:11:00,
2013-07-08 12:16:00,87.9,74.7,29.97,WSW,254,1.0,3.0,65,0.00,,,0.00,WUHU216DAVISVP2,2013-07-08 16:16:00,
2013-07-08 12:21:00,89.0,75.5,29.97,WNW,294,1.0,3.0,64,0.00,,,0.00,WUHU216DAVISVP2,2013-07-08 16:21:00,
2013-07-08 12:26:00,88.7,75.3,29.97,ENE,65,1.0,3.0,64,0.00,,,0.00,WUHU216DAVISVP2,2013-07-08 16:26:00,
2013-07-08 12:31:00,88.1,74.7,29.97,NNE,24,0.0,3.0,64,0.00,,,0.00,WUHU216DAVISVP2,2013-07-08 16:31:00,
2013-07-08 12:36:00,88.1,73.7,29.97,South,176,0.0,3.0,62,0.00,,,0.00,WUHU216DAVISVP2,2013-07-08 16:36:00,
2013-07-08 12:41:00,88.8,74.4,29.97,North,351,4.0,5.0,62,0.00,,,0.00,WUHU216DAVISVP2,2013-07-08 16:41:00,
2013-07-08 12:46:00,88.9,75.0,29.97,NNE,28,1.0,6.0,63,0.00,,,0.00,WUHU216DAVISVP2,2013-07-08 16:46:00,
2013-07-08 12:51:00,89.1,73.7,29.97,SSW,212,0.0,6.0,60,0.00,,,0.00,WUHU216DAVISVP2,2013-07-08 16:51:00,
2013-07-08 12:56:00,88.8,72.6,29.97,WSW,237,1.0,6.0,59,0.00,,,0.00,WUHU216DAVISVP2,2013-07-08 16:56:00,
2013-07-08 13:01:00,88.8,73.6,29.97,SSE,149,1.0,5.0,61,0.00,,,0.00,WUHU216DAVISVP2,2013-07-08 17:01:00,
2013-07-08 13:06:00,88.4,73.2,29.97,West,266,1.0,6.0,61,0.00,,,0.00,WUHU216DAVISVP2,2013-07-08 17:06:00,
2013-07-08 13:11:00,88.3,72.2,29.97,WSW,254,1.0,6.0,59,0.00,,,0.00,WUHU216DAVISVP2,2013-07-08 17:11:00,
2013-07-08 13:17:00,88.9,76.4,29.97,SE,146,0.0,8.0,66,0.00,,,0.00,WUHU216DAVISVP2,2013-07-08 17:17:00,
2013-07-08 13:22:00,89.5,73.6,29.98,NNE,31,2.0,8.0,59,0.00,,,0.00,WUHU216DAVISVP2,2013-07-08 17:22:00,
2013-07-08 13:27:00,88.4,72.0,29.97,WSW,240,2.0,8.0,58,0.00,,,0.00,WUHU216DAVISVP2,2013-07-08 17:27:00,
2013-07-08 13:32:00,88.4,73.0,29.97,WSW,244,0.0,3.0,60,0.00,,,0.00,WUHU216DAVISVP2,2013-07-08 17:32:00,
2013-07-08 13:37:00,89.2,73.8,29.97,WSW,238,0.0,3.0,60,0.00,,,0.00,WUHU216DAVISVP2,2013-07-08 17:37:00,
2013-07-08 13:42:00,89.9,73.4,29.97,South,185,1.0,3.0,58,0.00,,,0.00,WUHU216DAVISVP2,2013-07-08 17:42:00,
2013-07-08 13:47:00,89.9,71.8,29.97,SSW,205,0.0,4.0,55,0.00,,,0.00,WUHU216DAVISVP2,2013-07-08 17:47:00,
2013-07-08 13:52:00,90.5,73.5,29.97,SW,233,1.0,4.0,57,0.00,,,0.00,WUHU216DAVISVP2,2013-07-08 17:52:00,
2013-07-08 13:57:00,90.7,73.9,29.97,ENE,78,4.0,4.0,58,0.00,,,0.00,WUHU216DAVISVP2,2013-07-08 17:57:00,
2013-07-08 14:02:00,90.8,70.7,29.97,NE,37,2.0,10.0,52,0.00,,,0.00,WUHU216DAVISVP2,2013-07-08 18:02:00,
2013-07-08 14:07:00,90.6,73.3,29.97,NE,37,1.0,10.0,57,0.00,,,0.00,WUHU216DAVISVP2,2013-07-08 18:07:00,
2013-07-08 14:12:00,90.0,71.9,29.97,SSW,207,2.0,10.0,55,0.00,,,0.00,WUHU216DAVISVP2,2013-07-08 18:12:00,
2013-07-08 14:17:00,90.1,73.1,29.97,West,271,1.0,10.0,57,0.00,,,0.00,WUHU216DAVISVP2,2013-07-08 18:17:00,
2013-07-08 14:22:00,90.2,69.2,29.97,East,93,0.0,6.0,50,0.00,,,0.00,WUHU216DAVISVP2,2013-07-08 18:22:00,
2013-07-08 14:27:00,89.8,70.0,29.97,NE,44,1.0,8.0,52,0.00,,,0.00,WUHU216DAVISVP2,2013-07-08 18:27:00,
2013-07-08 14:33:00,89.7,72.7,29.97,NW,319,2.0,8.0,57,0.00,,,0.00,WUHU216DAVISVP2,2013-07-08 18:33:00,
2013-07-08 14:38:00,89.7,72.2,29.97,ESE,113,3.0,8.0,56,0.00,,,0.00,WUHU216DAVISVP2,2013-07-08 18:38:00,
2013-07-08 14:43:00,89.1,71.1,29.97,NNW,342,2.0,8.0,55,0.00,,,0.00,WUHU216DAVISVP2,2013-07-08 18:43:00,
2013-07-08 14:48:00,88.7,70.7,29.98,NNE,29,1.0,5.0,55,0.00,,,0.00,WUHU216DAVISVP2,2013-07-08 18:48:00,
2013-07-08 14:54:00,89.0,72.6,29.97,North,353,3.0,3.0,58,0.00,,,0.00,WUHU216DAVISVP2,2013-07-08 18:54:00,
2013-07-08 14:59:00,89.0,72.1,29.97,NNE,15,5.0,8.0,57,0.00,,,0.00,WUHU216DAVISVP2,2013-07-08 18:59:00,
2013-07-08 15:04:00,89.3,71.8,29.97,NNE,33,0.0,8.0,56,0.00,,,0.00,WUHU216DAVISVP2,2013-07-08 19:04:00,
2013-07-08 15:10:00,89.1,70.0,29.97,NE,41,3.0,8.0,53,0.00,,,0.00,WUHU216DAVISVP2,2013-07-08 19:10:00,
2013-07-08 15:15:00,89.0,71.8,29.97,NW,310,2.0,7.0,57,0.00,,,0.00,WUHU216DAVISVP2,2013-07-08 19:15:00,
2013-07-08 15:20:00,88.7,75.0,29.97,North,350,1.0,7.0,64,0.00,,,0.00,WUHU216DAVISVP2,2013-07-08 19:20:00,
2013-07-08 15:25:00,87.8,75.5,29.97,NE,44,5.0,7.0,67,0.00,,,0.00,WUHU216DAVISVP2,2013-07-08 19:25:00,
2013-07-08 15:30:00,86.8,75.4,29.97,WSW,248,1.0,5.0,69,0.00,,,0.00,WUHU216DAVISVP2,2013-07-08 19:30:00,
2013-07-08 15:36:00,86.4,76.5,29.97,SW,221,0.0,5.0,72,0.00,,,0.00,WUHU216DAVISVP2,2013-07-08 19:36:00,
2013-07-08 15:42:00,85.8,74.7,29.97,NE,50,2.0,6.0,69,0.00,,,0.00,WUHU216DAVISVP2,2013-07-08 19:42:00,
2013-07-08 15:48:00,85.1,75.3,29.97,SSW,207,0.0,6.0,72,0.00,,,0.00,WUHU216DAVISVP2,2013-07-08 19:48:00,
2013-07-08 15:53:00,84.8,75.4,29.97,East,97,2.0,6.0,73,0.00,,,0.00,WUHU216DAVISVP2,2013-07-08 19:53:00,
2013-07-08 15:58:00,85.4,77.2,29.97,SE,146,1.0,5.0,76,0.00,,,0.00,WUHU216DAVISVP2,2013-07-08 19:58:00,
2013-07-08 16:03:00,86.0,75.3,29.96,WNW,295,1.0,5.0,70,0.00,,,0.00,WUHU216DAVISVP2,2013-07-08 20:03:00,
2013-07-08 16:09:00,86.6,75.5,29.96,SSE,151,1.0,5.0,69,0.00,,,0.00,WUHU216DAVISVP2,2013-07-08 20:09:00,
2013-07-08 16:14:00,87.1,75.1,29.96,ENE,62,2.0,5.0,67,0.00,,,0.00,WUHU216DAVISVP2,2013-07-08 20:14:00,
2013-07-08 16:19:00,87.5,75.5,29.96,SE,146,1.0,4.0,67,0.00,,,0.00,WUHU216DAVISVP2,2013-07-08 20:19:00,
2013-07-08 16:24:00,88.0,75.7,29.96,SSE,158,2.0,4.0,67,0.00,,,0.00,WUHU216DAVISVP2,2013-07-08 20:24:00,
2013-07-08 16:29:00,88.2,75.9,29.96,SE,142,1.0,4.0,67,0.00,,,0.00,WUHU216DAVISVP2,2013-07-08 20:29:00,
2013-07-08 16:34:00,87.6,76.0,29.96,NNW,330,2.0,4.0,68,0.00,,,0.00,WUHU216DAVISVP2,2013-07-08 20:34:00,
2013-07-08 16:40:00,87.6,76.0,29.96,West,262,0.0,4.0,68,0.00,,,0.00,WUHU216DAVISVP2,2013-07-08 20:40:00,
2013-07-08 16:45:00,88.3,75.8,29.96,NE,47,0.0,4.0,66,0.00,,,0.00,WUHU216DAVISVP2,2013-07-08 20:45:00,
2013-07-08 16:50:00,87.3,75.3,29.97,ENE,60,1.0,5.0,67,0.00,,,0.00,WUHU216DAVISVP2,2013-07-08 20:50:00,
2013-07-08 16:55:00,87.2,76.9,29.96,East,82,1.0,5.0,71,0.00,,,0.00,WUHU216DAVISVP2,2013-07-08 20:55:00,
2013-07-08 17:00:00,86.9,75.9,29.96,North,7,4.0,5.0,70,0.00,,,0.00,WUHU216DAVISVP2,2013-07-08 21:00:00,
2013-07-08 17:05:00,87.5,76.1,29.97,ESE,122,2.0,4.0,69,0.00,,,0.00,WUHU216DAVISVP2,2013-07-08 21:05:00,
2013-07-08 17:10:00,87.7,75.2,29.97,SE,134,2.0,4.0,66,0.00,,,0.00,WUHU216DAVISVP2,2013-07-08 21:10:00,
2013-07-08 17:15:00,88.0,75.0,29.97,SE,141,2.0,4.0,65,0.00,,,0.00,WUHU216DAVISVP2,2013-07-08 21:15:00,
2013-07-08 17:21:00,87.4,74.5,29.97,SE,141,0.0,5.0,65,0.00,,,0.00,WUHU216DAVISVP2,2013-07-08 21:21:00,
2013-07-08 17:26:00,86.0,73.6,29.97,SE,125,3.0,5.0,66,0.00,,,0.00,WUHU216DAVISVP2,2013-07-08 21:26:00,
2013-07-08 17:31:00,84.7,73.7,29.97,SE,146,2.0,8.0,69,0.00,,,0.00,WUHU216DAVISVP2,2013-07-08 21:31:00,
2013-07-08 17:37:00,83.8,73.6,29.97,ESE,122,2.0,8.0,71,0.00,,,0.00,WUHU216DAVISVP2,2013-07-08 21:37:00,
2013-07-08 17:42:00,82.9,72.8,29.97,South,169,4.0,8.0,71,0.00,,,0.00,WUHU216DAVISVP2,2013-07-08 21:42:00,
2013-07-08 17:48:00,82.0,72.3,29.97,SE,128,1.0,7.0,72,0.00,,,0.00,WUHU216DAVISVP2,2013-07-08 21:48:00,
2013-07-08 17:53:00,81.1,71.0,29.97,SE,138,2.0,7.0,71,0.00,,,0.00,WUHU216DAVISVP2,2013-07-08 21:53:00,
2013-07-08 17:58:00,80.4,71.2,29.97,SE,135,2.0,7.0,73,0.00,,,0.00,WUHU216DAVISVP2,2013-07-08 21:58:00,
2013-07-08 18:03:00,80.0,71.2,29.97,SSE,149,3.0,7.0,74,0.00,,,0.00,WUHU216DAVISVP2,2013-07-08 22:03:00,
2013-07-08 18:09:00,79.8,71.3,29.97,SSE,162,1.0,7.0,75,0.00,,,0.00,WUHU216DAVISVP2,2013-07-08 22:09:00,
2013-07-08 18:14:00,79.5,71.1,29.98,South,179,1.0,7.0,75,0.00,,,0.00,WUHU216DAVISVP2,2013-07-08 22:14:00,
2013-07-08 18:20:00,79.3,71.1,29.98,North,5,0.0,7.0,76,0.00,,,0.00,WUHU216DAVISVP2,2013-07-08 22:20:00,
2013-07-08 18:25:00,78.9,70.3,29.99,SSE,159,0.0,7.0,75,0.00,,,0.00,WUHU216DAVISVP2,2013-07-08 22:25:00,
2013-07-08 18:30:00,78.5,70.1,29.99,ESE,117,1.0,7.0,75,0.00,,,0.00,WUHU216DAVISVP2,2013-07-08 22:30:00,
2013-07-08 18:36:00,78.0,69.6,30.00,ENE,67,2.0,9.0,75,0.00,,,0.00,WUHU216DAVISVP2,2013-07-08 22:36:00,
2013-07-08 18:41:00,77.6,69.6,30.00,SSW,210,0.0,9.0,76,0.00,,,0.00,WUHU216DAVISVP2,2013-07-08 22:41:00,
2013-07-08 18:46:00,77.2,69.2,30.00,NNE,28,2.0,9.0,76,0.00,,,0.00,WUHU216DAVISVP2,2013-07-08 22:46:00,
2013-07-08 18:51:00,76.8,69.2,30.00,NE,54,1.0,9.0,77,0.00,,,0.00,WUHU216DAVISVP2,2013-07-08 22:51:00,
2013-07-08 18:56:00,76.2,69.0,30.01,NW,316,2.0,8.0,78,0.00,,,0.00,WUHU216DAVISVP2,2013-07-08 22:56:00,
2013-07-08 19:01:00,75.9,69.0,30.01,SE,132,1.0,8.0,79,0.00,,,0.00,WUHU216DAVISVP2,2013-07-08 23:01:00,
2013-07-08 19:07:00,75.7,68.7,30.01,SSE,158,1.0,6.0,79,0.00,,,0.00,WUHU216DAVISVP2,2013-07-08 23:07:00,
2013-07-08 19:12:00,75.5,68.5,30.01,SSW,200,0.0,6.0,79,0.00,,,0.00,WUHU216DAVISVP2,2013-07-08 23:12:00,
2013-07-08 19:17:00,75.3,68.3,30.01,SE,146,0.0,6.0,79,0.00,,,0.00,WUHU216DAVISVP2,2013-07-08 23:17:00,
2013-07-08 19:22:00,75.2,68.7,30.01,NE,56,2.0,4.0,80,0.00,,,0.00,WUHU216DAVISVP2,2013-07-08 23:22:00,
2013-07-08 19:27:00,74.9,68.8,30.01,SE,126,1.0,4.0,81,0.00,,,0.00,WUHU216DAVISVP2,2013-07-08 23:27:00,
2013-07-08 19:32:00,74.7,68.2,30.01,East,84,2.0,5.0,80,0.00,,,0.00,WUHU216DAVISVP2,2013-07-08 23:32:00,
2013-07-08 19:38:00,74.4,68.3,30.01,North,349,2.0,7.0,81,0.00,,,0.00,WUHU216DAVISVP2,2013-07-08 23:38:00,
2013-07-08 19:43:00,74.1,68.3,30.01,East,83,3.0,7.0,82,0.00,,,0.00,WUHU216DAVISVP2,2013-07-08 23:43:00,
2013-07-08 19:48:00,73.9,68.1,30.02,ESE,114,1.0,7.0,82,0.00,,,0.00,WUHU216DAVISVP2,2013-07-08 23:48:00,
2013-07-08 19:53:00,73.9,68.1,30.02,ESE,120,1.0,7.0,82,0.00,,,0.00,WUHU216DAVISVP2,2013-07-08 23:53:00,
2013-07-08 19:58:00,73.6,67.8,30.02,ENE,63,1.0,5.0,82,0.00,,,0.00,WUHU216DAVISVP2,2013-07-08 23:58:00,
2013-07-08 20:03:00,73.4,68.0,30.02,NE,48,2.0,4.0,83,0.00,,,0.00,WUHU216DAVISVP2,2013-07-09 00:03:00,
2013-07-08 20:08:00,73.1,67.7,30.02,NE,35,0.0,4.0,83,0.00,,,0.00,WUHU216DAVISVP2,2013-07-09 00:08:00,
2013-07-08 20:14:00,72.9,67.5,30.03,NE,34,1.0,4.0,83,0.00,,,0.00,WUHU216DAVISVP2,2013-07-09 00:14:00,
2013-07-08 20:19:00,72.8,67.7,30.03,NNW,334,0.0,4.0,84,0.00,,,0.00,WUHU216DAVISVP2,2013-07-09 00:19:00,
2013-07-08 20:24:00,72.7,67.6,30.03,NNW,339,1.0,4.0,84,0.00,,,0.00,WUHU216DAVISVP2,2013-07-09 00:24:00,
2013-07-08 20:29:00,72.4,67.3,30.03,NNW,339,0.0,4.0,84,0.00,,,0.00,WUHU216DAVISVP2,2013-07-09 00:29:00,
2013-07-08 20:35:00,72.3,67.2,30.03,NNW,342,0.0,4.0,84,0.00,,,0.00,WUHU216DAVISVP2,2013-07-09 00:35:00,
2013-07-08 20:40:00,72.1,67.4,30.03,NE,44,1.0,4.0,85,0.00,,,0.00,WUHU216DAVISVP2,2013-07-09 00:40:00,
2013-07-08 20:45:00,71.9,67.2,30.04,North,2,1.0,3.0,85,0.00,,,0.00,WUHU216DAVISVP2,2013-07-09 00:45:00,
2013-07-08 20:51:00,71.8,67.1,30.04,South,181,2.0,3.0,85,0.00,,,0.00,WUHU216DAVISVP2,2013-07-09 00:51:00,
2013-07-08 20:56:00,71.7,66.9,30.05,South,185,1.0,3.0,85,0.00,,,0.00,WUHU216DAVISVP2,2013-07-09 00:56:00,
2013-07-08 21:02:00,71.7,67.3,30.05,SSW,205,2.0,3.0,86,0.00,,,0.00,WUHU216DAVISVP2,2013-07-09 01:02:00,
2013-07-08 21:07:00,71.6,67.2,30.05,SSE,155,1.0,3.0,86,0.00,,,0.00,WUHU216DAVISVP2,2013-07-09 01:07:00,
2013-07-08 21:12:00,71.4,67.3,30.06,SE,143,1.0,3.0,87,0.00,,,0.00,WUHU216DAVISVP2,2013-07-09 01:12:00,
2013-07-08 21:18:00,71.2,67.1,30.06,SSE,150,1.0,3.0,87,0.00,,,0.00,WUHU216DAVISVP2,2013-07-09 01:18:00,
2013-07-08 21:23:00,71.0,66.9,30.06,SSE,150,0.0,3.0,87,0.00,,,0.00,WUHU216DAVISVP2,2013-07-09 01:23:00,
2013-07-08 21:28:00,71.0,67.3,30.06,SSE,150,0.0,3.0,88,0.00,,,0.00,WUHU216DAVISVP2,2013-07-09 01:28:00,
2013-07-08 21:33:00,71.0,67.3,30.06,SSE,149,0.0,2.0,88,0.00,,,0.00,WUHU216DAVISVP2,2013-07-09 01:33:00,
2013-07-08 21:38:00,70.8,67.1,30.06,North,356,0.0,2.0,88,0.00,,,0.00,WUHU216DAVISVP2,2013-07-09 01:38:00,
2013-07-08 21:43:00,70.8,67.1,30.06,North,356,2.0,2.0,88,0.00,,,0.00,WUHU216DAVISVP2,2013-07-09 01:43:00,
2013-07-08 21:49:00,70.7,67.3,30.06,North,349,1.0,2.0,89,0.00,,,0.00,WUHU216DAVISVP2,2013-07-09 01:49:00,
2013-07-08 21:54:00,70.7,67.3,30.06,North,349,2.0,5.0,89,0.00,,,0.00,WUHU216DAVISVP2,2013-07-09 01:54:00,
2013-07-08 21:59:00,70.5,66.8,30.06,NE,44,2.0,5.0,88,0.00,,,0.00,WUHU216DAVISVP2,2013-07-09 01:59:00,
2013-07-08 22:05:00,70.3,66.9,30.06,NNW,346,3.0,5.0,89,0.00,,,0.00,WUHU216DAVISVP2,2013-07-09 02:05:00,
2013-07-08 22:11:00,70.2,66.8,30.06,North,1,2.0,5.0,89,0.00,,,0.00,WUHU216DAVISVP2,2013-07-09 02:11:00,
2013-07-08 22:18:00,69.9,66.5,30.07,WSW,242,0.0,4.0,89,0.00,,,0.00,WUHU216DAVISVP2,2013-07-09 02:18:00,
2013-07-08 22:23:00,69.8,66.7,30.07,NNW,345,2.0,4.0,90,0.00,,,0.00,WUHU216DAVISVP2,2013-07-09 02:23:00,
2013-07-08 22:28:00,69.6,66.8,30.07,NNW,328,2.0,4.0,91,0.00,,,0.00,WUHU216DAVISVP2,2013-07-09 02:28:00,
2013-07-08 22:33:00,69.5,66.7,30.07,NW,316,0.0,4.0,91,0.00,,,0.00,WUHU216DAVISVP2,2013-07-09 02:33:00,
2013-07-08 22:38:00,69.4,66.7,30.07,ENE,74,3.0,4.0,91,0.00,,,0.00,WUHU216DAVISVP2,2013-07-09 02:38:00,
2013-07-08 22:44:00,69.3,66.5,30.07,NNW,330,0.0,4.0,91,0.00,,,0.00,WUHU216DAVISVP2,2013-07-09 02:44:00,
2013-07-08 22:49:00,69.2,66.7,30.07,North,358,0.0,4.0,92,0.00,,,0.00,WUHU216DAVISVP2,2013-07-09 02:49:00,
2013-07-08 22:54:00,69.2,66.7,30.07,NNW,338,2.0,4.0,92,0.00,,,0.00,WUHU216DAVISVP2,2013-07-09 02:54:00,
2013-07-08 22:59:00,69.1,66.6,30.07,North,360,2.0,4.0,92,0.00,,,0.00,WUHU216DAVISVP2,2013-07-09 02:59:00,
2013-07-08 23:04:00,69.1,66.6,30.08,East,95,0.0,3.0,92,0.00,,,0.00,WUHU216DAVISVP2,2013-07-09 03:04:00,
2013-07-08 23:09:00,69.0,66.6,30.08,NE,37,2.0,3.0,92,0.00,,,0.00,WUHU216DAVISVP2,2013-07-09 03:09:00,
2013-07-08 23:15:00,69.1,66.6,30.07,ESE,117,0.0,3.0,92,0.00,,,0.00,WUHU216DAVISVP2,2013-07-09 03:15:00,
2013-07-08 23:21:00,69.1,66.6,30.07,ENE,72,2.0,3.0,92,0.00,,,0.00,WUHU216DAVISVP2,2013-07-09 03:21:00,
2013-07-08 23:26:00,69.0,66.6,30.07,East,83,0.0,3.0,92,0.00,,,0.00,WUHU216DAVISVP2,2013-07-09 03:26:00,
2013-07-08 23:31:00,69.0,66.6,30.08,NW,306,1.0,3.0,92,0.00,,,0.00,WUHU216DAVISVP2,2013-07-09 03:31:00,
2013-07-08 23:36:00,69.0,66.6,30.08,NNW,339,1.0,3.0,92,0.00,,,0.00,WUHU216DAVISVP2,2013-07-09 03:36:00,
2013-07-08 23:41:00,68.9,66.5,30.08,East,87,1.0,3.0,92,0.00,,,0.00,WUHU216DAVISVP2,2013-07-09 03:41:00,
2013-07-08 23:47:00,68.9,66.5,30.07,NW,309,0.0,3.0,92,0.00,,,0.00,WUHU216DAVISVP2,2013-07-09 03:47:00,
2013-07-08 23:52:00,68.9,66.5,30.08,NNW,331,0.0,3.0,92,0.00,,,0.00,WUHU216DAVISVP2,2013-07-09 03:52:00,
2013-07-08 23:57:00,68.9,66.5,30.08,North,360,0.0,3.0,92,0.00,,,0.00,WUHU216DAVISVP2,2013-07-09 03:57:00,